Home > Weather > Canada > Vancouver > Past weeks

Flag for Canada Weather past 2 weeks in Vancouver, British Columbia, Canada

46 °F

Light rain. Mostly cloudy.

Feels Like: 41 °F
Forecast: 42 / 48 °F
Wind: 12 mph from Southeast

Location: Vancouver International Airport

Current Time: Dec 1, 2015 at 7:42:17 PM

Latest Report: Dec 1, 2015 at 7:00 PM

Visibility: 15 mi

Pressure: 29.93 "Hg

Humidity: 93%

Dew point: 45 °F

Location of VancouverLocation

Historic Weather in Vancouver — Graph


Vancouver temperature yesterday

Maximum temperature yesterday: 46 °F (at 11:00 PM)
Minimum temperature yesterday: 23 °F (at 5:00 AM)
Average temperature yesterday: 33 °F

Past Weeks' High & Low Weather Summary

High55 °F (Nov 17, 12:00 PM)100% (Nov 16, 8:52 PM)30.60 "Hg (Nov 16, 8:52 PM)
Low23 °F (Nov 30, 5:00 AM)46% (Nov 24, 3:00 PM)29.34 "Hg (Nov 17, 12:00 PM)
Average37 °F85%30.18 "Hg
* Reported Nov 16 6:00 PM — Dec 1 6:00 PM, Vancouver, Weather by CustomWeather, © 2015

Note: Actual official high and low records may vary slightly from our data, if they occured in-between our weather recording intervals... More about our weather records


Vancouver weather history for previous 24 hours

Time TempWeatherWind HumidityBarometerVisibility
6:00 PM
Tue, Dec 1
48 °FLight rain. Overcast.15 mph82%29.94 "Hg15 mi
5:00 PM48 °FLight rain. Mostly cloudy.17 mph76%29.95 "Hg15 mi
4:00 PM46 °FLight rain. Mostly cloudy.12 mph87%29.98 "Hg15 mi
3:00 PM50 °FLight rain. Mostly cloudy.15 mph71%29.98 "Hg20 mi
2:00 PM52 °FCloudy.13 mph67%30.01 "Hg15 mi
1:00 PM50 °FCloudy.14 mph71%30.04 "Hg15 mi
12:00 PM48 °FCloudy.12 mph82%30.07 "Hg15 mi
11:00 AM48 °FOvercast.10 mph82%30.10 "Hg15 mi
10:00 AM46 °FOvercast.9 mph82%30.14 "Hg15 mi
9:00 AM46 °FOvercast.10 mph82%30.13 "Hg15 mi
8:00 AM43 °FOvercast.10 mph93%30.14 "Hg15 mi
7:00 AM43 °FOvercast.9 mph93%30.16 "Hg15 mi
6:00 AM43 °FLight rain. Mostly cloudy.7 mph93%30.16 "Hg12 mi
5:00 AM43 °FLight rain. Overcast.9 mph93%30.15 "Hg15 mi
4:00 AM41 °FLight rain. Overcast.7 mph93%30.15 "Hg12 mi
3:00 AM43 °FMostly cloudy.8 mph93%30.14 "Hg15 mi
2:00 AM43 °FSprinkles. Mostly cloudy.9 mph87%30.13 "Hg12 mi
1:00 AM45 °FMostly cloudy.10 mph81%30.12 "Hg15 mi
12:47 AM45 °FMostly cloudy.10 mph81%30.11 "Hg15 mi
12:00 AM45 °FSprinkles. Mostly cloudy.9 mph76%30.13 "Hg15 mi
11:00 PM
Mon, Nov 30
46 °FPassing clouds.10 mph66%30.11 "Hg15 mi
10:00 PM45 °FMostly cloudy.15 mph71%30.11 "Hg15 mi
9:00 PM43 °FMostly cloudy.13 mph76%30.11 "Hg15 mi
8:00 PM43 °FPartly cloudy.12 mph66%30.10 "Hg15 mi
7:00 PM39 °FPartly cloudy.10 mph81%30.10 "Hg15 mi
Weather by CustomWeather, © 2015

See weather overviewHow to use our weather pages